Regional Weather Roundup
Issued by NWS

Home | Current Version | Previous Version | Graphics & Text | Print | Product List | Glossary On
Versions: 1 2 3 4 5 6 7 8 9 10 11 12 13 14 15 16 17 18 19 20 21 22 23 24 25 26
000
ASUS45 KSLC 130410
RWRUT

UTAH REGIONAL WEATHER ROUNDUP
NATIONAL WEATHER SERVICE SALT LAKE CITY UT
900 PM MST TUE DEC 12 2017

UTZ001>011-023>025-130500-

NORTHERN UTAH

CITY           SKY/WX    TMP DP  RH WIND       PRES   REMARKS
BRIGHAM CITY   CLOUDY    23  20  91 CALM      30.46F VSB 1/2
HILL AFB       FOG       24  23  96 NW5       30.42S VSB 1/2 WCI  18
LOGAN          MOCLDY    17  12  80 S7        30.44S WCI   8
OGDEN          CLOUDY    24  23  96 VRB3      30.43S FOG
SALT LAKE CITY FOG       25  23  92 CALM      30.43S VSB 1
TOOELE VALLEY  FOG       23  23 100 NE3       30.45R VSB 1/4
WENDOVER       NOT AVBL
HEBER CITY       N/A     19  14  79 CALM      30.37S
WEST JORDAN    CLOUDY   N/A N/A N/A CALM      30.41F VSB 1/4

$$

UTZ011>015-024>027-130500-

CENTRAL/NORTHEAST UTAH

CITY           SKY/WX    TMP DP  RH WIND       PRES   REMARKS
PROVO AIRPORT  HAZE      19  16  86 CALM      30.42S VSB 1/2
MOAB/CANYONLAN MOCLDY    29   2  31 W3        30.32F
DELTA          MOCLDY    25  14  63 SW3       30.39F
PRICE          PTCLDY    28   3  34 NE3       30.32F
ROOSEVELT      PTCLDY    21   9  58 SW7       30.37S WCI  13
VERNAL         CLOUDY    22   8  55 NW5       30.35F WCI  16

$$

UTZ013>016-019>022-027-130500-

SOUTHERN UTAH

CITY           SKY/WX    TMP DP  RH WIND       PRES   REMARKS
BRYCE CANYON   PTCLDY    23   2  40 W7        30.39S WCI  15
CEDAR CITY     PTCLDY    27   7  42 SW3       30.35S
MILFORD        MOCLDY    21  10  62 CALM      30.37F
ST GEORGE      CLEAR     44   5  20 W5        30.27R
HANKSVILLE     MOCLDY    27  -2  28 CALM      30.35F
BLANDING         N/A     33   3  27 CALM      30.37F

$$

REGIONAL REPORTS     COLORADO/ARIZONA

CITY           SKY/WX    TMP DP  RH WIND       PRES   REMARKS
CRAIG, CO      CLOUDY    16  11  80 CALM      30.32F
GRAND JUNCTION CLOUDY    27   5  39 E3        30.32F
RIFLE, CO      CLEAR     27  11  51 S3        30.35S
MONTROSE, CO   CLOUDY    27   9  46 SE8       30.35F WCI  19
CORTEZ, CO     CLOUDY    22   2  42 NE8       30.32S WCI  12
COLORADO CITY    N/A     48   9  20 NE12      30.31S
PAGE, AZ       MOCLDY    38  15  39 CALM      30.31F HAZE
GRAND CANYON   MOCLDY    31   8  38 CALM      30.32F
KINGMAN, AZ    CLEAR     42   2  18 E8        30.21S
FLAGSTAFF, AZ  PTCLDY    23  -2  33 CALM      30.33F

$$

REGIONAL REPORTS    NEVADA/IDAHO/WYOMING

CITY           SKY/WX    TMP DP  RH WIND       PRES   REMARKS
LAS VEGAS, NV  CLEAR     53   0  11 CALM      30.18S
ELY, NY        PTCLDY    25   2  37 S14       30.39F WCI  13
ELKO, NV       MOCLDY    22  17  81 E5        30.41R WCI  16
POCATELLO, ID  FOG       19  18  95 SW10      30.44F VSB 1/2 WCI   7
BURLEY, ID     HAZE      22  17  81 N3        30.46S VSB 1/2
FORT BRIDGER,    N/A     41   1  18 W15       30.36F
EVANSTON, WY   CLOUDY    32  11  41 SW12      30.36F WCI  23
ROCK SPRINGS,  CLOUDY    36   0  21 W13       30.29F WCI  27

$$




USA.gov is the U.S. government's official web portal to all federal, state and local government web resources and services.